{"data":{"norad_id":58885,"epoch":"2026-09-20T00:47:02.178240Z","epoch_age_seconds":192969,"freshness":"STALE","line1":"1 58885U 24020K   26263.03266410  .00000963  00000+0  42796-4 0  9992","line2":"2 58885  53.1576 138.4503 0001214  88.0400 272.0740 15.31701764147846","mean_motion":15.31701764,"eccentricity":0.0001214,"inclination_deg":53.1576,"raan_deg":138.4503,"arg_perigee_deg":88.04,"mean_anomaly_deg":272.074,"bstar":4.2796e-5,"rev_number":14784,"period_min":94.01307968984,"perigee_km":469.90328380963,"apogee_km":471.56618986734,"semimajor_km":6848.8717368385,"source":"CELESTRAK","updated_at":"2026-09-21T09:00:33.993594Z"}}